Track SAUDISAT 1C now! 10-day predictions SAUDISAT 1C is classified as:
1 27607U 02058C 26253.65485524 .00000670 00000-0 96660-4 0 9998 2 27607 64.5511 224.5159 0072222 246.8033 112.5455 14.83203997277134